When you browse on this site, cookies collect data to enhance your experience and personalize the content and advertising you see.
Visit our Privacy Policy to learn more. By continuing to use the site, you agree to this use of cookies and data.
  • In Romania
  • List of Countries
  • For 7 days
  • Water Temperature
  • Satellite Maps
  • Weather Map
  • Weather Widgets
  • user-avatar
    Login

    Hourly Weather Martigues

    Today, 19 June, Wednesday

    Time Temperature Precipitation Wind Pressure Humidity
    00:00 +23°C° 0 mm 2 mps 757 mmHg 55%
    01:00 +23°C° 0 mm 2 mps 757 mmHg 55%
    02:00 +22°C° 0 mm 3 mps 757 mmHg 55%
    03:00 +22°C° 0 mm 3 mps 756 mmHg 55%
    04:00 +22°C° 0 mm 3 mps 757 mmHg 53%
    05:00 +24°C° 0 mm 3 mps 757 mmHg 52%
    06:00 +24°C° 0 mm 3 mps 757 mmHg 49%
    07:00 +25°C° 0 mm 4 mps 757 mmHg 47%
    08:00 +26°C° 0 mm 4 mps 757 mmHg 46%
    09:00 +27°C° 0 mm 5 mps 757 mmHg 44%
    10:00 +27°C° 0 mm 5 mps 757 mmHg 43%
    11:00 +27°C° 0 mm 5 mps 757 mmHg 41%
    12:00 +28°C° 0 mm 6 mps 757 mmHg 40%
    13:00 +28°C° 0 mm 6 mps 757 mmHg 41%
    14:00 +28°C° 0 mm 5 mps 756 mmHg 41%
    15:00 +27°C° 0 mm 5 mps 756 mmHg 42%
    16:00 +27°C° 0 mm 5 mps 756 mmHg 44%
    17:00 +26°C° 0 mm 4 mps 756 mmHg 47%
    18:00 +25°C° 0 mm 4 mps 756 mmHg 50%
    19:00 +25°C° 0 mm 3 mps 756 mmHg 53%
    20:00 +24°C° 0 mm 2 mps 757 mmHg 56%
    21:00 +23°C° 0 mm 1 mps 757 mmHg 59%
    22:00 +23°C° 0 mm 1 mps 757 mmHg 60%
    23:00 +21°C° 0 mm 0 mps 757 mmHg 61%

    Tomorrow, 20 June, Thursday

    Time Temperature Precipitation Wind Pressure Humidity
    00:00 +20°C° 0 mm 0 mps 757 mmHg 62%
    01:00 +22°C° 0 mm 1 mps 757 mmHg 64%
    02:00 +21°C° 0 mm 2 mps 757 mmHg 65%
    03:00 +20°C° 0 mm 2 mps 756 mmHg 66%
    04:00 +21°C° 0 mm 2 mps 757 mmHg 62%
    05:00 +21°C° 0 mm 2 mps 757 mmHg 59%
    06:00 +23°C° 0 mm 1 mps 757 mmHg 55%
    07:00 +24°C° 0 mm 2 mps 757 mmHg 51%
    08:00 +25°C° 0 mm 2 mps 757 mmHg 48%
    09:00 +27°C° 0 mm 2 mps 757 mmHg 44%
    10:00 +28°C° 0 mm 3 mps 757 mmHg 42%
    11:00 +29°C° 0 mm 3 mps 757 mmHg 40%
    12:00 +31°C° 0 mm 3 mps 757 mmHg 38%
    13:00 +31°C° 0 mm 3 mps 757 mmHg 38%
    14:00 +32°C° 0 mm 4 mps 756 mmHg 37%
    15:00 +33°C° 0 mm 4 mps 756 mmHg 37%
    16:00 +30°C° 0 mm 4 mps 756 mmHg 42%
    17:00 +29°C° 0 mm 3 mps 756 mmHg 48%
    18:00 +27°C° 0 mm 3 mps 756 mmHg 54%
    19:00 +26°C° 0 mm 3 mps 757 mmHg 57%
    20:00 +26°C° 0 mm 2 mps 757 mmHg 60%
    21:00 +25°C° 0 mm 2 mps 757 mmHg 64%
    22:00 +25°C° 0.1 mm 3 mps 757 mmHg 66%
    23:00 +24°C° 0.1 mm 3 mps 757 mmHg 68%

    Day after tomorrow, 21 June, Friday

    Time Temperature Precipitation Wind Pressure Humidity
    00:00 +23°C° 0.1 mm 4 mps 758 mmHg 71%
    01:00 +23°C° 0.1 mm 5 mps 757 mmHg 71%
    02:00 +22°C° 0.1 mm 5 mps 757 mmHg 71%
    03:00 +22°C° 0.1 mm 6 mps 757 mmHg 71%
    04:00 +22°C° 0 mm 5 mps 757 mmHg 70%
    05:00 +23°C° 0 mm 4 mps 757 mmHg 68%
    06:00 +24°C° 0 mm 2 mps 757 mmHg 67%
    07:00 +25°C° 0 mm 2 mps 757 mmHg 62%
    08:00 +26°C° 0 mm 2 mps 758 mmHg 57%
    09:00 +28°C° 0 mm 1 mps 758 mmHg 53%
    10:00 +28°C° 0 mm 2 mps 758 mmHg 52%
    11:00 +28°C° 0 mm 3 mps 757 mmHg 52%
    12:00 +28°C° 0 mm 4 mps 757 mmHg 52%
    13:00 +28°C° 0 mm 4 mps 757 mmHg 53%
    14:00 +28°C° 0 mm 3 mps 757 mmHg 54%
    15:00 +27°C° 0 mm 3 mps 757 mmHg 55%
    16:00 +27°C° 0 mm 3 mps 757 mmHg 55%
    17:00 +27°C° 0 mm 3 mps 757 mmHg 56%
    18:00 +27°C° 0 mm 3 mps 757 mmHg 56%
    19:00 +26°C° 0 mm 2 mps 757 mmHg 58%
    20:00 +26°C° 0 mm 2 mps 758 mmHg 60%
    21:00 +25°C° 0 mm 1 mps 758 mmHg 62%
    22:00 +25°C° 0 mm 1 mps 758 mmHg 64%
    23:00 +24°C° 0 mm 2 mps 758 mmHg 67%

    22 June, Saturday

    Time Temperature Precipitation Wind Pressure Humidity
    00:00 +24°C° 0 mm 2 mps 758 mmHg 70%
    01:00 +22°C° 0 mm 3 mps 758 mmHg 71%
    02:00 +22°C° 0 mm 3 mps 757 mmHg 71%
    03:00 +22°C° 0 mm 4 mps 757 mmHg 72%
    04:00 +22°C° 0 mm 4 mps 757 mmHg 71%
    05:00 +22°C° 0 mm 4 mps 757 mmHg 70%
    06:00 +22°C° 0 mm 4 mps 758 mmHg 70%
    07:00 +25°C° 0 mm 5 mps 758 mmHg 63%
    08:00 +26°C° 0 mm 5 mps 757 mmHg 57%
    09:00 +27°C° 0 mm 5 mps 757 mmHg 50%
    10:00 +28°C° 0 mm 5 mps 757 mmHg 47%
    11:00 +29°C° 0 mm 6 mps 757 mmHg 43%
    12:00 +30°C° 0 mm 6 mps 757 mmHg 40%
    13:00 +30°C° 0 mm 6 mps 757 mmHg 39%
    14:00 +30°C° 0 mm 5 mps 757 mmHg 38%
    15:00 +32°C° 0 mm 5 mps 757 mmHg 37%
    16:00 +30°C° 0 mm 5 mps 757 mmHg 39%
    17:00 +29°C° 0 mm 5 mps 757 mmHg 41%
    18:00 +29°C° 0 mm 4 mps 757 mmHg 43%
    19:00 +28°C° 0 mm 4 mps 757 mmHg 47%
    20:00 +27°C° 0 mm 5 mps 757 mmHg 51%
    21:00 +26°C° 0 mm 5 mps 758 mmHg 55%
    22:00 +25°C° 0 mm 5 mps 758 mmHg 58%
    23:00 +23°C° 0 mm 4 mps 758 mmHg 62%

    23 June, Sunday

    Time Temperature Precipitation Wind Pressure Humidity
    00:00 +23°C° 0 mm 4 mps 758 mmHg 65%
    01:00 +24°C° 0 mm 3 mps 758 mmHg 63%
    02:00 +22°C° 0 mm 3 mps 758 mmHg 65%
    03:00 +22°C° 0 mm 3 mps 758 mmHg 66%
    04:00 +23°C° 0 mm 2 mps 758 mmHg 63%
    05:00 +24°C° 0 mm 2 mps 758 mmHg 59%
    06:00 +24°C° 0 mm 2 mps 758 mmHg 55%
    07:00 +26°C° 0 mm 2 mps 758 mmHg 48%
    08:00 +28°C° 0 mm 2 mps 758 mmHg 41%
    09:00 +30°C° 0 mm 3 mps 758 mmHg 34%
    10:00 +30°C° 0 mm 3 mps 758 mmHg 37%
    11:00 +30°C° 0 mm 4 mps 758 mmHg 39%
    12:00 +30°C° 0 mm 4 mps 758 mmHg 42%
    13:00 +30°C° 0 mm 4 mps 758 mmHg 43%
    14:00 +30°C° 0 mm 4 mps 758 mmHg 45%
    15:00 +29°C° 0 mm 4 mps 758 mmHg 47%
    16:00 +29°C° 0 mm 4 mps 758 mmHg 48%
    17:00 +28°C° 0 mm 3 mps 758 mmHg 50%
    18:00 +28°C° 0 mm 3 mps 758 mmHg 51%
    19:00 +27°C° 0 mm 3 mps 759 mmHg 54%
    20:00 +26°C° 0 mm 2 mps 759 mmHg 56%
    21:00 +25°C° 0 mm 2 mps 759 mmHg 58%
    22:00 +25°C° 0 mm 1 mps 759 mmHg 59%
    23:00 +25°C° 0 mm 1 mps 759 mmHg 59%

    24 June, Monday

    Time Temperature Precipitation Wind Pressure Humidity
    00:00 +25°C° 0 mm 1 mps 759 mmHg 59%
    01:00 +24°C° 0 mm 1 mps 759 mmHg 61%
    02:00 +24°C° 0 mm 1 mps 759 mmHg 62%
    03:00 +24°C° 0 mm 1 mps 759 mmHg 64%
    04:00 +24°C° 0 mm 1 mps 759 mmHg 62%
    05:00 +25°C° 0 mm 2 mps 759 mmHg 60%
    06:00 +25°C° 0 mm 2 mps 760 mmHg 59%
    07:00 +28°C° 0 mm 2 mps 759 mmHg 51%
    08:00 +30°C° 0 mm 2 mps 759 mmHg 44%
    09:00 +32°C° 0 mm 2 mps 759 mmHg 37%
    10:00 +34°C° 0 mm 4 mps 759 mmHg 35%
    11:00 +34°C° 0 mm 5 mps 760 mmHg 33%
    12:00 +35°C° 0 mm 7 mps 760 mmHg 31%
    13:00 +35°C° 0 mm 8 mps 760 mmHg 31%
    14:00 +35°C° 0 mm 8 mps 760 mmHg 30%
    15:00 +35°C° 0 mm 9 mps 760 mmHg 30%
    16:00 +34°C° 0 mm 8 mps 760 mmHg 31%
    17:00 +34°C° 0 mm 8 mps 760 mmHg 32%
    18:00 +33°C° 0 mm 7 mps 760 mmHg 33%
    19:00 +32°C° 0 mm 6 mps 760 mmHg 36%
    20:00 +30°C° 0 mm 5 mps 761 mmHg 39%
    21:00 +29°C° 0 mm 4 mps 761 mmHg 43%
    22:00 +28°C° 0 mm 4 mps 761 mmHg 44%
    23:00 +27°C° 0 mm 3 mps 761 mmHg 46%
    Show more